SCP
0 0 0 0 0 0 0 0 -0 0 0 0 0 0 0 0 -0 0 0 -0 0 0 0 0 0 0 0 0 0 0 0 0 0 0 0 0 0 0
0 0 0 0 0 0 0 0 0 0 0 0 0 0 0 -0 -0 -0 -0 -0 -0 -0 -0 -0 -0 -0 0 0 0 0 -0 0 0 0 0 0 0 0
0 0 0 0 0 0 0 0 0 0 0 0 0 0 0 0 0 -0 -0 -0 -0 -0 -0 -0 -0 -0 -0 -0 0 0 0 0 0 0 0 0 0 0
0 0 0 0 0 0 0 0 0 0 0 0 0 0 0 0 0 0 0 0 0 -0 -0 0 0 0 0 0 0 0 0 0 0 0 0 0 0 0
0 0 0 0 0 0 0 0 0 0 0 0 0 0 0 0 0 0 0 0 0 0 0 0 0 0 0 0 0 0 0 0 0 0 0 0 0 0
0 0 0 0 0 0 0 0 0 0 0 0 0 0 0 0 0 0 0 0 0 0 0 0 0 0 0 0 0 0 0 0 0 0 0 0 0 0
0 0 0 0 0 0 0 0 0 0 0 0 0 0 0 0 0 0 0 0 0 0 0 0 0 0 0 0 0 0 0 0 0 0 0 0 0 0
0 0 0 0 0 0 0 0 0 0 0 0 0 0 0 0 0 0 0 0 0 0 0 0 0 0 0 0 0 0 0 0 0 0 0 0 0 0
0 0 0 0 0 0 0 0 0 0 0 0 0 0 0 0 0 0 0 0 0 0 0 0 0 0 0 0 0 0 0 0 0 0 0 0 0 0
0 0 0 0 0 0 0 0 0 0 0 0 0 0 0 0 0 0 0 0 0 0 0 0 0 0 0 0 0 0 0 0 0 0 0 0 0 0
0 0 0 0 0 0 0 0 0 0 0 0 0 0 0 0 0 0 0 0 0 0 0 0 0 0 0 0 0 0 0 0 0 0 0 0 0 0
0 0 0 0 0 0 0 0 0 0 0 0 0 0 0 0 0 0 0 0 0 0 0 0 0 0 0 0 0 0 0 0 0 0 0 0 0 0
0 0 0 0 0 0 0 0 0 0 0 0 0 0 0 0 0 0 0 0 0 0 0 0 0 0 0 0 0 0 0 0 0 0 0 0 0 0
0 0 0 0 0 0 0 0 0 0 0 0 0 0 0 0 0 0 0 0 0 0 0 0 0 0 0 0 0 0 0 0 0 0 0 0 0 0
0 0 0 0 0 0 0 0 0 0 0 0 0 0 0 0 0 0 0 0 0 0 0 0 0 0 0 0 0 0 0 0 0 0 0 0 0 0
0 0 0 0 0 0 0 0 0 0 0 0 0 0 0 0 0 0 0 0 0 0 0 0 0 0 0 0 0 0 0 0 0 0 0 0 0 0
0 0 0 0 0 0 0 0 0 0 0 0 0 0 0 0 0 0 0 0 0 0 0 0 0 0 0 0 0 0 0 0 0 0 0 0 0 0
0 0 0 0 0 0 0 0 0 0 0 0 0 0 0 0 0 0 0 0 0 0 0 0 0 0 0 0 0 0 0 0 0 0 0 0 0 0
0 0 0 0 0 0 0 0 0 0 0 0 0 0 0 0 0 0 0 0 0 0 0 0 0 0 0 0 0 0 0 0 0 0 0 0 0 0
0 0 0 0 0 0 0 0 0 0 0 0 0 0 0 0 0 0 0 0 0 0 0 0 0 0 0 0 0 0 0 0 0 0 0 0 0 0
0 0 0 0 0 0 0 0 0 0 0 0 0 0 0 0 0 0 0 0 0 0 0 0 0 0 0 0 0 0 0 0 0 0 0 0 0 0
0 0 0 0 0 0 0 0 0 0 0 0 0 0 0 0 0 0 0 0 0 0 0 0 0 0 0 0 0 0 0 0 0 0 0 0 0 0
0 0 0 0 0 0 0 0 0 0 0 0 0 0 0 0 0 0 0 0 0 0 0 0 0 0 0 0 0 0 0 0 0 0 0 0 0 0
Wind_Speed_500mb
8 13 18 20 20 24 27 25 25 24 20 27 26 16 11 8 6 6 9 12 11 12 11 12 12 11 11 10 8 6 8 16 13 9 7 8 7 6
5 4 9 16 19 20 21 23 22 19 25 33 25 20 13 9 10 6 11 16 18 18 19 18 15 14 14 13 13 14 19 17 16 15 8 6 6 10
2 4 3 8 12 16 21 23 22 21 23 36 27 20 15 11 11 8 11 10 14 15 18 18 17 15 16 16 17 21 15 16 12 12 8 5 10 14
6 7 7 8 9 14 19 21 22 21 18 30 35 28 17 16 15 15 16 16 17 18 17 20 17 13 11 11 12 13 8 2 3 3 3 2 8 9
7 6 7 11 10 14 17 17 19 18 17 25 37 33 27 21 20 16 17 19 23 24 21 18 16 13 12 11 11 9 6 3 2 3 4 5 6 7
7 8 9 9 8 10 12 15 17 19 21 29 34 36 31 27 22 21 23 25 24 22 20 18 14 12 11 11 10 9 8 8 7 7 7 7 7 8
6 6 6 8 8 9 10 11 14 18 25 34 35 37 34 30 29 27 27 27 22 19 21 19 20 23 23 22 22 20 18 14 12 11 10 9 9 11
9 7 6 8 9 9 9 9 12 11 21 27 31 34 29 30 29 30 30 29 25 18 21 20 20 20 20 21 21 21 21 20 17 15 14 12 12 13
5 4 6 5 7 8 7 8 12 18 18 15 24 25 27 26 28 31 30 21 15 20 23 22 22 18 15 14 13 14 16 18 19 20 19 17 18 18
3 1 0 2 4 7 7 5 8 13 17 20 21 23 25 28 25 23 24 20 18 19 23 22 23 20 12 8 10 7 6 8 10 13 15 17 18 18
7 6 4 2 3 4 5 5 8 12 16 19 22 24 25 25 27 28 28 27 26 23 25 20 23 19 15 12 11 14 8 4 4 5 7 7 9 9
8 8 8 7 7 7 6 6 7 11 15 19 21 22 22 23 24 23 21 27 27 25 29 26 22 19 19 21 17 17 19 15 10 9 5 2 2 4
16 11 12 13 13 11 9 8 9 10 15 17 18 20 20 20 19 21 23 26 27 25 21 33 30 24 24 16 22 17 20 24 22 18 11 10 9 6
25 19 15 15 18 17 15 13 12 17 18 19 20 21 21 17 15 15 19 25 27 25 20 22 25 24 25 27 25 22 18 16 22 21 18 19 16 13
31 28 25 21 23 25 24 23 21 25 25 24 22 20 19 17 15 15 14 13 17 20 19 18 12 12 19 23 21 22 18 17 18 21 21 21 23 24
39 40 39 35 31 30 32 34 34 33 36 33 29 24 26 27 24 22 21 20 22 25 22 19 13 7 6 15 21 16 10 8 18 20 20 21 21 20
46 44 50 49 44 40 39 38 39 42 43 39 41 39 37 34 31 29 25 27 31 31 28 30 23 18 15 16 16 12 14 11 9 14 20 25 25 22
55 52 56 57 54 46 46 43 43 42 39 35 35 35 37 35 36 37 33 27 30 29 25 26 26 25 24 24 26 24 17 17 16 18 20 19 17 20
69 58 63 63 58 54 51 48 44 42 40 40 39 39 39 39 41 40 41 36 34 34 30 28 27 29 29 26 21 27 22 23 27 27 29 27 25 15
50 55 58 62 63 60 54 54 45 48 48 45 45 44 43 42 42 46 44 41 38 37 40 33 31 29 29 27 21 22 28 31 31 30 30 34 36 34
57 58 57 58 62 61 56 55 53 58 55 49 46 45 43 43 42 44 47 45 42 42 44 40 31 30 33 32 34 30 25 29 33 36 39 41 44 47
41 42 48 56 53 58 57 59 60 62 66 62 58 55 51 51 50 49 50 51 52 47 44 40 34 36 38 39 34 34 37 36 37 42 45 45 48 44
35 44 45 40 48 51 55 55 58 64 72 71 67 66 68 70 65 59 59 55 51 52 49 46 44 41 41 41 42 47 51 47 48 45 50 46 49 57
Wind_Direction_500mb
264 255 240 232 235 224 224 222 209 163 155 155 138 147 149 143 150 158 179 172 168 157 143 127 122 118 100 85 83 88 91 104 95 99 66 50 45 16
275 250 216 218 227 217 210 205 212 218 171 174 162 168 168 144 120 135 161 165 156 148 135 125 109 87 76 71 70 79 102 107 103 99 69 71 63 18
63 71 127 186 188 187 190 192 193 204 189 171 176 163 168 160 155 135 126 135 137 136 128 111 100 81 73 73 84 95 114 137 119 105 89 38 3 351
67 78 104 123 146 171 178 178 192 199 198 187 180 174 166 149 145 136 130 133 127 121 105 92 92 91 82 88 103 127 148 186 35 25 19 356 8 355
92 88 101 105 133 145 154 174 186 196 202 206 184 184 176 170 168 160 150 140 126 114 109 109 98 94 97 105 110 113 112 91 68 73 55 32 19 10
101 94 88 107 141 152 165 174 190 197 193 191 189 183 186 177 176 161 151 137 130 123 123 118 111 107 104 100 99 98 94 84 79 73 65 54 45 42
72 85 96 97 111 138 160 185 196 193 182 177 187 185 188 183 176 166 156 147 141 138 140 128 112 107 97 89 87 82 76 72 67 64 68 75 77 74
62 67 84 94 96 107 121 141 146 155 177 185 189 190 197 188 182 176 171 167 154 171 161 155 135 125 112 100 90 78 71 74 76 73 70 74 80 79
80 75 71 95 104 102 110 137 158 156 158 183 196 199 196 196 189 183 177 175 186 188 182 173 167 152 134 120 99 76 70 70 77 78 76 80 80 82
282 232 84 101 131 115 111 125 152 164 170 174 178 190 189 191 196 191 187 187 200 188 184 186 185 186 182 183 168 132 95 87 88 85 81 75 73 77
287 260 232 204 187 175 149 157 179 173 172 172 172 176 183 184 189 193 206 210 205 202 192 186 191 205 221 229 222 207 201 164 146 100 91 83 68 65
293 268 260 238 220 214 190 178 193 192 188 186 182 184 185 186 192 195 204 208 209 202 203 206 208 206 221 229 238 230 230 223 203 210 217 238 323 331
262 261 252 240 232 228 215 205 206 218 196 185 185 187 188 189 196 208 215 211 217 227 232 218 222 227 216 218 219 225 235 224 226 227 234 254 266 279
252 257 260 247 232 229 227 226 214 202 193 184 178 174 172 179 199 219 220 219 221 221 222 208 220 228 233 235 231 230 223 232 229 223 243 253 258 265
248 248 251 248 236 232 228 230 226 220 216 212 210 207 205 217 231 214 197 203 210 205 192 184 198 224 234 224 211 210 221 237 240 224 245 263 261 257
249 241 239 241 239 237 231 230 233 233 233 236 235 234 229 231 236 216 215 211 192 186 197 203 206 205 164 179 197 205 206 202 227 239 253 259 263 270
254 246 237 236 236 236 236 238 235 235 238 240 235 240 236 227 227 217 214 215 214 216 225 220 219 217 213 205 206 214 230 219 233 260 275 274 267 268
257 249 243 239 240 240 238 239 240 235 231 231 228 225 220 230 220 219 221 225 220 218 215 209 217 226 233 237 231 227 224 230 256 280 295 292 287 264
250 247 249 245 241 239 239 236 239 234 226 228 228 225 229 229 225 226 226 229 225 219 211 210 225 231 233 241 236 228 236 257 272 270 270 279 275 271
249 256 257 247 242 236 236 238 234 228 227 228 227 227 228 230 231 228 228 232 223 221 219 228 235 235 232 235 243 235 257 264 276 269 267 264 268 269
259 255 254 252 248 240 236 236 235 229 228 228 229 230 231 233 236 237 234 230 229 229 230 238 239 242 245 248 249 268 277 273 272 278 278 274 275 278
271 266 268 266 255 243 240 238 234 232 228 231 235 238 237 240 242 241 233 233 231 232 231 238 241 243 247 249 257 272 278 278 276 275 273 274 275 273
275 266 266 266 263 258 249 243 243 229 234 235 241 242 250 248 243 243 240 235 231 233 234 240 243 244 256 260 265 271 275 274 285 278 273 271 271 275
Wind_Speed_850mb
8 13 18 20 20 24 27 25 25 24 20 27 26 16 11 8 6 6 9 12 11 12 11 12 12 11 11 10 8 6 8 16 13 9 7 8 7 6
5 4 9 16 19 20 21 23 22 19 25 33 25 20 13 9 10 6 11 16 18 18 19 18 15 14 14 13 13 14 19 17 16 15 8 6 6 10
2 4 3 8 12 16 21 23 22 21 23 36 27 20 15 11 11 8 11 10 14 15 18 18 17 15 16 16 17 21 15 16 12 12 8 5 10 14
6 7 7 8 9 14 19 21 22 21 18 30 35 28 17 16 15 15 16 16 17 18 17 20 17 13 11 11 12 13 8 2 3 3 3 2 8 9
7 6 7 11 10 14 17 17 19 18 17 25 37 33 27 21 20 16 17 19 23 24 21 18 16 13 12 11 11 9 6 3 2 3 4 5 6 7
7 8 9 9 8 10 12 15 17 19 21 29 34 36 31 27 22 21 23 25 24 22 20 18 14 12 11 11 10 9 8 8 7 7 7 7 7 8
6 6 6 8 8 9 10 11 14 18 25 34 35 37 34 30 29 27 27 27 22 19 21 19 20 23 23 22 22 20 18 14 12 11 10 9 9 11
9 7 6 8 9 9 9 9 12 11 21 27 31 34 29 30 29 30 30 29 25 18 21 20 20 20 20 21 21 21 21 20 17 15 14 12 12 13
5 4 6 5 7 8 7 8 12 18 18 15 24 25 27 26 28 31 30 21 15 20 23 22 22 18 15 14 13 14 16 18 19 20 19 17 18 18
3 1 0 2 4 7 7 5 8 13 17 20 21 23 25 28 25 23 24 20 18 19 23 22 23 20 12 8 10 7 6 8 10 13 15 17 18 18
7 6 4 2 3 4 5 5 8 12 16 19 22 24 25 25 27 28 28 27 26 23 25 20 23 19 15 12 11 14 8 4 4 5 7 7 9 9
8 8 8 7 7 7 6 6 7 11 15 19 21 22 22 23 24 23 21 27 27 25 29 26 22 19 19 21 17 17 19 15 10 9 5 2 2 4
16 11 12 13 13 11 9 8 9 10 15 17 18 20 20 20 19 21 23 26 27 25 21 33 30 24 24 16 22 17 20 24 22 18 11 10 9 6
25 19 15 15 18 17 15 13 12 17 18 19 20 21 21 17 15 15 19 25 27 25 20 22 25 24 25 27 25 22 18 16 22 21 18 19 16 13
31 28 25 21 23 25 24 23 21 25 25 24 22 20 19 17 15 15 14 13 17 20 19 18 12 12 19 23 21 22 18 17 18 21 21 21 23 24
39 40 39 35 31 30 32 34 34 33 36 33 29 24 26 27 24 22 21 20 22 25 22 19 13 7 6 15 21 16 10 8 18 20 20 21 21 20
46 44 50 49 44 40 39 38 39 42 43 39 41 39 37 34 31 29 25 27 31 31 28 30 23 18 15 16 16 12 14 11 9 14 20 25 25 22
55 52 56 57 54 46 46 43 43 42 39 35 35 35 37 35 36 37 33 27 30 29 25 26 26 25 24 24 26 24 17 17 16 18 20 19 17 20
69 58 63 63 58 54 51 48 44 42 40 40 39 39 39 39 41 40 41 36 34 34 30 28 27 29 29 26 21 27 22 23 27 27 29 27 25 15
50 55 58 62 63 60 54 54 45 48 48 45 45 44 43 42 42 46 44 41 38 37 40 33 31 29 29 27 21 22 28 31 31 30 30 34 36 34
57 58 57 58 62 61 56 55 53 58 55 49 46 45 43 43 42 44 47 45 42 42 44 40 31 30 33 32 34 30 25 29 33 36 39 41 44 47
41 42 48 56 53 58 57 59 60 62 66 62 58 55 51 51 50 49 50 51 52 47 44 40 34 36 38 39 34 34 37 36 37 42 45 45 48 44
35 44 45 40 48 51 55 55 58 64 72 71 67 66 68 70 65 59 59 55 51 52 49 46 44 41 41 41 42 47 51 47 48 45 50 46 49 57
Wind_Direction_850mb
264 255 240 232 235 224 224 222 209 163 155 155 138 147 149 143 150 158 179 172 168 157 143 127 122 118 100 85 83 88 91 104 95 99 66 50 45 16
275 250 216 218 227 217 210 205 212 218 171 174 162 168 168 144 120 135 161 165 156 148 135 125 109 87 76 71 70 79 102 107 103 99 69 71 63 18
63 71 127 186 188 187 190 192 193 204 189 171 176 163 168 160 155 135 126 135 137 136 128 111 100 81 73 73 84 95 114 137 119 105 89 38 3 351
67 78 104 123 146 171 178 178 192 199 198 187 180 174 166 149 145 136 130 133 127 121 105 92 92 91 82 88 103 127 148 186 35 25 19 356 8 355
92 88 101 105 133 145 154 174 186 196 202 206 184 184 176 170 168 160 150 140 126 114 109 109 98 94 97 105 110 113 112 91 68 73 55 32 19 10
101 94 88 107 141 152 165 174 190 197 193 191 189 183 186 177 176 161 151 137 130 123 123 118 111 107 104 100 99 98 94 84 79 73 65 54 45 42
72 85 96 97 111 138 160 185 196 193 182 177 187 185 188 183 176 166 156 147 141 138 140 128 112 107 97 89 87 82 76 72 67 64 68 75 77 74
62 67 84 94 96 107 121 141 146 155 177 185 189 190 197 188 182 176 171 167 154 171 161 155 135 125 112 100 90 78 71 74 76 73 70 74 80 79
80 75 71 95 104 102 110 137 158 156 158 183 196 199 196 196 189 183 177 175 186 188 182 173 167 152 134 120 99 76 70 70 77 78 76 80 80 82
282 232 84 101 131 115 111 125 152 164 170 174 178 190 189 191 196 191 187 187 200 188 184 186 185 186 182 183 168 132 95 87 88 85 81 75 73 77
287 260 232 204 187 175 149 157 179 173 172 172 172 176 183 184 189 193 206 210 205 202 192 186 191 205 221 229 222 207 201 164 146 100 91 83 68 65
293 268 260 238 220 214 190 178 193 192 188 186 182 184 185 186 192 195 204 208 209 202 203 206 208 206 221 229 238 230 230 223 203 210 217 238 323 331
262 261 252 240 232 228 215 205 206 218 196 185 185 187 188 189 196 208 215 211 217 227 232 218 222 227 216 218 219 225 235 224 226 227 234 254 266 279
252 257 260 247 232 229 227 226 214 202 193 184 178 174 172 179 199 219 220 219 221 221 222 208 220 228 233 235 231 230 223 232 229 223 243 253 258 265
248 248 251 248 236 232 228 230 226 220 216 212 210 207 205 217 231 214 197 203 210 205 192 184 198 224 234 224 211 210 221 237 240 224 245 263 261 257
249 241 239 241 239 237 231 230 233 233 233 236 235 234 229 231 236 216 215 211 192 186 197 203 206 205 164 179 197 205 206 202 227 239 253 259 263 270
254 246 237 236 236 236 236 238 235 235 238 240 235 240 236 227 227 217 214 215 214 216 225 220 219 217 213 205 206 214 230 219 233 260 275 274 267 268
257 249 243 239 240 240 238 239 240 235 231 231 228 225 220 230 220 219 221 225 220 218 215 209 217 226 233 237 231 227 224 230 256 280 295 292 287 264
250 247 249 245 241 239 239 236 239 234 226 228 228 225 229 229 225 226 226 229 225 219 211 210 225 231 233 241 236 228 236 257 272 270 270 279 275 271
249 256 257 247 242 236 236 238 234 228 227 228 227 227 228 230 231 228 228 232 223 221 219 228 235 235 232 235 243 235 257 264 276 269 267 264 268 269
259 255 254 252 248 240 236 236 235 229 228 228 229 230 231 233 236 237 234 230 229 229 230 238 239 242 245 248 249 268 277 273 272 278 278 274 275 278
271 266 268 266 255 243 240 238 234 232 228 231 235 238 237 240 242 241 233 233 231 232 231 238 241 243 247 249 257 272 278 278 276 275 273 274 275 273
275 266 266 266 263 258 249 243 243 229 234 235 241 242 250 248 243 243 240 235 231 233 234 240 243 244 256 260 265 271 275 274 285 278 273 271 271 275